Terminal Aerodrome Forecast
Issued by NWS Raleigh/Durham, NC

Home | Current Version | Previous Version | Text Only | Print | Product List | Glossary On
Versions: 1 2 3 4 5 6 7 8 9 10 11 12 13 14 15 16 17 18 19 20 21 22 23 24 25 26 27 28 29 30 31 32 33 34 35 36 37 38
000
FTUS42 KRAH 222327
TAFFAY
TAF
KFAY 222327Z 2300/2324 22009KT P6SM FEW060
     FM231800 22010KT P6SM SCT060 BKN250 PROB30 2320/2324 VRB15G30KT
      2SM TSRA BKN025CB=

USA.gov is the U.S. government's official web portal to all federal, state and local government web resources and services.